Location: Granada Hills
(34.2650°N, 118.5220°W)
Time: 08:17:01
(UTC-08:00)

deb Kosmos-1763 - Visible Passes

Search period start: 25 January 2015 00:00
Search period end: 04 February 2015 00:00
Orbit: 551 x 564 km, 74.0° (Epoch: 24 January)

Date Brightness Start Highest point End Pass type
(mag) Time Alt. Az. Time Alt. Az. Time Alt. Az.
25 Jan 6.7 04:24:37 10° SSE 04:27:45 23° E 04:31:00 10° NE visible
25 Jan 5.5 06:02:06 10° WSW 06:05:16 21° WNW 06:08:22 10° NNW visible
26 Jan 6.4 04:26:33 26° ENE 04:26:33 26° ENE 04:29:07 10° NE visible
26 Jan 5.8 06:02:35 16° WNW 06:03:11 16° WNW 06:05:45 10° NNW visible
27 Jan 7.0 04:26:24 14° NE 04:26:24 14° NE 04:27:07 10° NNE visible
27 Jan 6.4 06:02:21 11° NW 06:02:21 11° NW 06:02:53 10° NW visible
